Regional Weather Roundup
Issued by NWS

Home | Current Version | Previous Version | Graphics & Text | Print | Product List | Glossary On
Versions: 1 2 3 4 5 6 7 8 9 10 11 12 13 14 15 16 17 18 19 20 21 22 23 24 25 26 27 28 29 30 31 32 33 34 35 36 37 38 39 40 41 42 43 44 45 46 47 48 49 50
000
ASUS43 KMKX 280200
RWRWI

WISCONSIN REGIONAL WEATHER ROUNDUP
NATIONAL WEATHER SERVICE MILWAUKEE/SULLIVAN WI
800 PM CST THU NOV 27 2014

NOTE: "FAIR" INDICATES FEW OR NO CLOUDS BELOW 12,000 FEET WITH NO
SIGNIFICANT WEATHER AND/OR OBSTRUCTIONS TO VISIBILITY.

WIZ001-002-006>008-014>016-023>028-280300-
NORTHWEST WISCONSIN

CITY           SKY/WX    TMP DP  RH WIND       PRES   REMARKS
SUPERIOR ARPT  FAIR       4  -3  72 SW5       30.36S WCI  -5
ASHLAND        PTCLDY    -3  -7  82 SW3       30.35F
HAYWARD        PTCLDY    -4  -8  83 CALM      30.31F
SIREN          CLEAR      2  -3  78 CALM      30.34F
CUMBERLAND     CLEAR      1  -6  71 CALM      30.31F
RICE LAKE      CLEAR      1  -4  77 CALM      30.35F
CHETEK         CLEAR     -2  -6  82 SE3       30.34F
LADYSMITH      PTCLDY    -1  -5  82 CALM      30.33F
EAU CLAIRE     PTCLDY     4  -2  76 CALM      30.35F
MENOMONIE      PTCLDY     7   0  73 CALM      30.37F
NEW RICHMOND   PTCLDY     8  -1  67 S5        30.33F WCI  -1
OSCEOLA        PTCLDY     9   0  69 E3        30.36F
$$

WIZ003>005-009-010-017-018-280300-
NORTH CENTRAL WISCONSIN

CITY           SKY/WX    TMP DP  RH WIND       PRES   REMARKS
MANITOWISH WTR PTCLDY   -11 -16  80 CALM      30.27F
ARBOR VITAE    PTCLDY    -2  -7  82 CALM      30.27F
WOODRUFF       PTCLDY    -2  -7  82 CALM      30.27F
RHINELANDER    PTCLDY    -6  -9  86 CALM      30.27F
EAGLE RIVER    PTCLDY    -2  -6  82 CALM      30.26F
LAND O LAKES   PTCLDY   -11 -16  80 CALM      30.27F
PHILLIPS       CLEAR     -5  -7  89 CALM      30.28F
TOMAHAWK       PTCLDY    -8 -12  83 CALM      30.30S
MEDFORD        PTCLDY     0  -4  84 CALM      30.30S
MERRILL        PTCLDY    -1  -4  87 CALM      30.32S
$$

WIZ029-030-035-036-043>047-280300-
CENTRAL WISCONSIN

CITY           SKY/WX    TMP DP  RH WIND       PRES   REMARKS
WAUSAU         PTCLDY     4  -2  76 NW6       30.32S WCI  -7
MOSINEE        CLEAR      0  -2  92 CALM      30.34S
MARSHFIELD     PTCLDY    -1  -5  82 SW3       30.32F
STEVENS POINT  PTCLDY    -2  -5  88 CALM      30.36R
WAUPACA        PTCLDY     8   2  74 W3        30.38S
WAUTOMA        NOT AVBL
WISC RAPIDS    PTCLDY     1  -5  75 CALM      30.37F
CAMP DOUGLAS   NOT AVBL
$$

WIZ011>013-019>022-031-037>040-048>050-280300-
NORTHEAST WISCONSIN

CITY           SKY/WX    TMP DP  RH WIND       PRES   REMARKS
ANTIGO         PTCLDY   -10 -13  87 CALM      30.30S
SHAWANO        CLEAR     10   5  79 CALM      30.37S
OCONTO         CLEAR      1  -2  88 CALM      30.37F
STURGEON BAY   CLEAR     12   1  62 NW5       30.35S WCI   4
GREEN BAY      CLEAR      6   1  80 W7        30.38S WCI  -6
MANITOWOC      NOT AVBL
APPLETON       CLEAR      5   0  78 W8        30.37S WCI  -8
CLINTONVILLE   PTCLDY     7   1  78 W3        30.37S
OSHKOSH        PTCLDY     7  -1  70 MISG      30.37F
$$

WIZ032>034-041-042-053>061-280300-
SOUTHWEST WISCONSIN

CITY           SKY/WX    TMP DP  RH WIND       PRES   REMARKS
LA CROSSE      MOCLDY    12   2  64 CALM      30.40S
SPARTA         PTCLDY     2  -1  86 CALM      30.39F
VIROQUA        MOCLDY     6   0  74 SW3       30.35R
BOSCOBEL       PTCLDY     9   2  73 CALM      30.42R
PRAIRIE DU CHI PTCLDY    11  -1  59 W3        30.43R
PLATTEVILLE    PTCLDY    10  -1  60 CALM      30.39R
$$

WIZ056-057-062-063-064-067-068-280300-
SOUTH CENTRAL WISCONSIN

CITY           SKY/WX    TMP DP  RH WIND       PRES   REMARKS
REEDSBURG      MOCLDY     4   1  89 CALM      30.39S
BARABOO/DELLS  MOCLDY     2  -1  86 CALM      30.38F
LONE ROCK      NOT AVBL
MINERAL POINT  PTCLDY    12   1  62 CALM      30.35F
MADISON        PTCLDY     8   4  83 CALM      30.38F
MIDDLETON      PTCLDY     2  -2  83 CALM      30.38F
WATERTOWN      PTCLDY     8   8  96 W3        30.39R
MONROE         FAIR      12   5  73 CALM      30.36F
JANESVILLE     CLEAR      9   5  85 CALM      30.38F
$$

WIZ051-052-058>065-066-070>072-280300-
SOUTHEAST WISCONSIN

CITY           SKY/WX    TMP DP  RH WIND       PRES   REMARKS
MILWAUKEE      CLEAR     16   7  67 W5        30.39S WCI   9
WAUKESHA       MOCLDY    12   7  79 NW5       30.38F WCI   4
MILWAUKEE/TIMM CLEAR     12   7  79 W5        30.40S WCI   4
RACINE         CLEAR     14   7  73 NW3       30.41S
BURLINGTON     PTCLDY     6   4  91 NW3       30.39S
KENOSHA        FLURRIES  12   7  80 NW5       30.39S WCI   4
FOND DU LAC    PTCLDY     8   0  69 W6        30.38S WCI  -2
SHEBOYGAN      CLEAR      8   4  83 W6        30.38S WCI  -2
WEST BEND      CLEAR     10   5  79 CALM      30.37S
JUNEAU         PTCLDY     6   3  89 W3        30.39S
$$

LSZ147-162-280300-
LAKE SUPERIOR

STATION/POSITION TIME  TEMP    WIND        PRES    WAVE
                       AIR SEA DIR/SP/G            HT/PER
                 (UTC) (F)     (DEG/KT/KT) (MB)    (FT/S)
DEVILS ISLAND    0100   12     220/ 11/ 16 1029.2F
PORT WING        0140    3     150/  2/  4 1027.8F
SAXON HARBOR     0140   -1      CALM  / 21 1027.8F
$$

LMZ867-665-643>646-280300-
LAKE MICHIGAN

STATION/POSITION TIME  TEMP    WIND        PRES    WAVE
                       AIR SEA DIR/SP/G            HT/PER
                 (UTC) (F)     (DEG/KT/KT) (MB)    (FT/S)
CHAMBERS ISLAND  0100   17     320/ 11/ 15 1028.1S
N MID LAKE BUOY  0050   19 42  310/ 17/ 21 1028.0S   3/ 4
NORTHPORT PIER   0111   17     310/  9/ 16 1027.8S
SISTER BAY       0058          340/ 16/ 20   N/A
KEWAUNEE LAKESHO 0100   11     300/  3/  5 1027.6R
SHEBOYGAN LAKESH 0100   15 34  290/  7/  9 1030.5F
PORT WASHINGTON  0100   15     300/  5/  6 1030.1S
MILWAUKEE LAKESH 0100   18     290/  5/  8   N/A
S MID LAKE BUOY  0050   24 42  300/ 14/ 17 1029.5R   5/ 7
KENOSHA   LAKESH 0100   17     300/  6/  9 1029.1F
$$

TC  - TEMPERATURE IN CELSIUS
VSB - VISIBILITY IN STATUTE MILES
WCI - WIND CHILL INDEX
HX  - HEAT INDEX



USA.gov is the U.S. government's official web portal to all federal, state and local government web resources and services.